AFL1525 UUBC-ULLI

Flight info

Callsign AFL1525
Flight time N/A
Altitude 38000
Route BAMDO2M BAMDO T462 GODBI T561 ODATI T875 GENPA GENPA1W
Aircraft A320/M-SDE3FGHIRWY/LB1

Departure

Time N/A
Airport Grabtsevo Airport (UUBC)

Arrival

Time 2026-05-07 13:40
Airport Pulkovo Airport (ULLI)
Time Latitude Longitude Altitude Speed Heading
2026-05-07 13:12 58.50497 32.78689 36918 ft 424 kts 313°
2026-05-07 13:13 58.52773 32.75082 36648 ft 422 kts 313°
2026-05-07 13:13 58.55002 32.71530 36396 ft 421 kts 313°
2026-05-07 13:13 58.57258 32.67935 36141 ft 420 kts 312°
2026-05-07 13:13 58.59508 32.64344 35880 ft 419 kts 312°
2026-05-07 13:14 58.61734 32.60785 35620 ft 419 kts 312°
2026-05-07 13:14 58.63973 32.57204 35381 ft 418 kts 312°
2026-05-07 13:14 58.66184 32.53669 35145 ft 417 kts 311°
2026-05-07 13:14 58.68413 32.50098 34929 ft 416 kts 311°
2026-05-07 13:15 58.70635 32.46534 34687 ft 415 kts 311°
2026-05-07 13:15 58.72854 32.42966 34448 ft 414 kts 311°
2026-05-07 13:15 58.75036 32.39447 34213 ft 413 kts 310°
2026-05-07 13:15 58.77244 32.35882 33972 ft 412 kts 310°
2026-05-07 13:16 58.79444 32.32322 33696 ft 412 kts 310°
2026-05-07 13:16 58.81639 32.28762 33405 ft 410 kts 310°
2026-05-07 13:16 58.83813 32.25238 32857 ft 406 kts 310°
2026-05-07 13:16 58.85972 32.21733 32304 ft 402 kts 310°
2026-05-07 13:17 58.88098 32.18272 31748 ft 398 kts 310°
2026-05-07 13:17 58.90186 32.14869 31211 ft 394 kts 310°
2026-05-07 13:17 58.92276 32.11454 30671 ft 391 kts 310°
2026-05-07 13:17 58.94349 32.08061 30176 ft 389 kts 309°
2026-05-07 13:18 58.96409 32.04675 29552 ft 387 kts 309°
2026-05-07 13:18 58.98448 32.01320 29043 ft 382 kts 309°
2026-05-07 13:18 59.00471 31.97990 28532 ft 379 kts 309°
2026-05-07 13:18 59.02473 31.94690 28010 ft 375 kts 309°
2026-05-07 13:19 59.04453 31.91421 27531 ft 371 kts 309°
2026-05-07 13:19 59.06390 31.88223 27048 ft 367 kts 309°
2026-05-07 13:19 59.08330 31.85016 26576 ft 363 kts 309°
2026-05-07 13:19 59.10171 31.81772 26111 ft 353 kts 303°
2026-05-07 13:20 59.11693 31.78101 25679 ft 346 kts 295°
2026-05-07 13:20 59.13035 31.74138 25248 ft 352 kts 295°
2026-05-07 13:20 59.14400 31.70148 24805 ft 353 kts 295°
2026-05-07 13:20 59.15772 31.66175 24370 ft 352 kts 295°
2026-05-07 13:21 59.17118 31.62288 23951 ft 349 kts 296°
2026-05-07 13:21 59.18471 31.58378 23494 ft 344 kts 296°
2026-05-07 13:21 59.19800 31.54526 23033 ft 340 kts 296°
2026-05-07 13:21 59.21114 31.50701 22615 ft 337 kts 296°
2026-05-07 13:22 59.22415 31.46887 22195 ft 335 kts 296°
2026-05-07 13:22 59.23689 31.43141 21784 ft 334 kts 296°
2026-05-07 13:22 59.24971 31.39359 21371 ft 333 kts 296°
2026-05-07 13:22 59.26252 31.35584 20956 ft 331 kts 296°
2026-05-07 13:23 59.27523 31.31833 20547 ft 329 kts 296°
2026-05-07 13:23 59.28768 31.28149 20148 ft 328 kts 296°
2026-05-07 13:23 59.30023 31.24430 19744 ft 327 kts 296°
2026-05-07 13:23 59.31275 31.20712 19340 ft 326 kts 297°
2026-05-07 13:24 59.32522 31.17014 18934 ft 324 kts 297°
2026-05-07 13:24 59.33762 31.13326 18547 ft 323 kts 297°
2026-05-07 13:24 59.34995 31.09652 18103 ft 322 kts 297°
2026-05-07 13:24 59.36207 31.06034 17694 ft 320 kts 297°
2026-05-07 13:25 59.37429 31.02386 17297 ft 319 kts 297°
2026-05-07 13:25 59.38646 30.98749 16899 ft 318 kts 297°
2026-05-07 13:25 59.39857 30.95120 16508 ft 317 kts 297°
2026-05-07 13:25 59.41062 30.91498 16111 ft 316 kts 297°
2026-05-07 13:26 59.42250 30.87918 15725 ft 315 kts 298°
2026-05-07 13:26 59.43448 30.84306 15333 ft 314 kts 298°
2026-05-07 13:26 59.44640 30.80705 14942 ft 313 kts 298°
2026-05-07 13:26 59.45831 30.77108 14546 ft 313 kts 298°
2026-05-07 13:27 59.47017 30.73516 14165 ft 312 kts 298°
2026-05-07 13:27 59.48196 30.69947 13849 ft 308 kts 299°
2026-05-07 13:27 59.49348 30.66463 13717 ft 299 kts 299°
2026-05-07 13:27 59.50454 30.63114 13510 ft 293 kts 298°
2026-05-07 13:28 59.51555 30.59763 13177 ft 290 kts 300°
2026-05-07 13:28 59.52651 30.56409 12807 ft 290 kts 300°
2026-05-07 13:28 59.53740 30.53066 12398 ft 290 kts 301°
2026-05-07 13:28 59.54835 30.49715 12006 ft 290 kts 301°
2026-05-07 13:29 59.55943 30.46393 11625 ft 289 kts 302°
2026-05-07 13:29 59.57061 30.43092 11261 ft 289 kts 302°
2026-05-07 13:29 59.58161 30.39855 10922 ft 286 kts 303°
2026-05-07 13:29 59.59264 30.36597 10557 ft 285 kts 303°
2026-05-07 13:30 59.60359 30.33353 10246 ft 283 kts 303°
2026-05-07 13:30 59.61450 30.30110 9888 ft 284 kts 304°
2026-05-07 13:30 59.62544 30.26840 9428 ft 285 kts 304°
2026-05-07 13:30 59.63638 30.23562 8978 ft 286 kts 304°
2026-05-07 13:31 59.64738 30.20273 8538 ft 286 kts 304°
2026-05-07 13:31 59.65834 30.16988 8096 ft 285 kts 304°
2026-05-07 13:31 59.66916 30.13732 7645 ft 287 kts 304°
2026-05-07 13:31 59.68007 30.10444 7248 ft 285 kts 304°
2026-05-07 13:32 59.69096 30.07162 6839 ft 284 kts 305°
2026-05-07 13:32 59.70177 30.03901 6460 ft 283 kts 306°
2026-05-07 13:32 59.72332 29.97402 5594 ft 281 kts 305°
2026-05-07 13:33 59.73392 29.94192 5287 ft 275 kts 305°
2026-05-07 13:33 59.74442 29.91008 4826 ft 275 kts 305°
2026-05-07 13:33 59.75491 29.87821 4412 ft 274 kts 305°
2026-05-07 13:33 59.76188 29.85738 4156 ft 271 kts 308°
2026-05-07 13:34 59.81370 29.84269 3176 ft 234 kts 42°
2026-05-07 13:34 59.82343 29.86754 2975 ft 224 kts 62°
2026-05-07 13:35 59.83082 29.89427 2780 ft 214 kts 62°
2026-05-07 13:35 59.83724 29.91998 2599 ft 201 kts 73°
2026-05-07 13:35 59.83890 29.94607 2521 ft 186 kts 94°
2026-05-07 13:35 59.83628 29.96974 2520 ft 163 kts 104°
2026-05-07 13:36 59.83330 29.99029 2428 ft 147 kts 104°
2026-05-07 13:36 59.83056 30.00915 2284 ft 137 kts 103°
2026-05-07 13:36 59.82793 30.02730 2119 ft 136 kts 104°
2026-05-07 13:36 59.82534 30.04500 1916 ft 134 kts 103°
2026-05-07 13:37 59.81835 30.09277 1430 ft 132 kts 103°
2026-05-07 13:37 59.81578 30.11035 1249 ft 132 kts 104°
2026-05-07 13:38 59.81320 30.12779 1052 ft 130 kts 104°
2026-05-07 13:38 59.81064 30.14515 839 ft 132 kts 105°
2026-05-07 13:38 59.80809 30.16256 674 ft 133 kts 105°
2026-05-07 13:38 59.80551 30.18040 524 ft 134 kts 105°
2026-05-07 13:39 59.80286 30.19822 352 ft 134 kts 105°
2026-05-07 13:39 59.80023 30.21587 149 ft 132 kts 106°
2026-05-07 13:39 59.79776 30.23260 83 ft 115 kts 105°
2026-05-07 13:39 59.79598 30.24458 84 ft 65 kts 107°
2026-05-07 13:40 59.79492 30.25170 85 ft 48 kts 106°
2026-05-07 13:40 59.79407 30.25760 88 ft 41 kts 106°
2026-05-07 13:40 59.79336 30.26237 87 ft 29 kts 107°
2026-05-07 13:40 59.79363 30.26373 84 ft 11 kts 17°
2026-05-07 13:41 59.79446 30.26420 84 ft 11 kts 15°
2026-05-07 13:41 59.79457 30.26423 89 ft 0 kts
2026-05-07 13:43 59.79489 30.26400 86 ft 6 kts 313°
2026-05-07 13:43 59.79501 30.26325 88 ft 6 kts 286°
2026-05-07 13:44 59.79522 30.26257 88 ft 7 kts 329°
2026-05-07 13:44 59.79593 30.26290 85 ft 13 kts 18°
2026-05-07 13:44 59.79691 30.26347 85 ft 16 kts 17°
2026-05-07 13:44 59.79766 30.26392 87 ft 7 kts 16°
2026-05-07 13:45 59.79794 30.26370 85 ft 4 kts 299°
2026-05-07 13:45 59.79801 30.26326 86 ft 3 kts 286°
2026-05-07 13:45 59.79805 30.26296 86 ft 0 kts 287°